| time (UTC) | temp C | wind direction | speed KPH | gust KPH | rain 1hr cm | rain 24hr cm | rain mn cm | humidity % | barometer mb |
| 20260902014956 | 11 | 0 | 0.0 | 0.0 | 0.00 | 0.00 | 0.00 | 93 | 1020.2 |
| 20260902013957 | 11 | 0 | 0.0 | 0.0 | 0.00 | 0.00 | 0.00 | 94 | 1020.2 |
| 20260902012004 | 11 | 0 | 0.0 | 0.0 | 0.00 | 0.00 | 0.00 | 94 | 1020.2 |
| 20260902011015 | 11 | 0 | 0.0 | 0.0 | 0.00 | 0.00 | 0.00 | 93 | 1020.2 |
| 20260902010018 | 12 | 0 | 0.0 | 0.0 | 0.00 | 0.00 | 0.00 | 93 | 1020.3 |
| 20260902005025 | 12 | 0 | 0.0 | 0.0 | 0.00 | 0.00 | 0.00 | 92 | 1020.3 |
| 20260902004025 | 12 | 0 | 0.0 | 0.0 | 0.00 | 0.00 | 0.00 | 94 | 1020.3 |
| 20260902003024 | 11 | 0 | 0.0 | 0.0 | 0.00 | 0.00 | 0.00 | 94 | 1020.4 |
| 20260902002024 | 12 | 0 | 0.0 | 0.0 | 0.00 | 0.00 | 0.00 | 94 | 1020.3 |
| 20260902001107 | 12 | 0 | 0.0 | 0.0 | 0.00 | 0.00 | 0.00 | 93 | 1020.2 |
| 20260902000132 | 12 | 0 | 0.0 | 0.0 | 0.00 | 0.00 | 0.00 | 93 | 1020.2 |
| 20260901235127 | 12 | 0 | 0.0 | 0.0 | 0.00 | 0.00 | 0.00 | 93 | 1020.2 |
| 20260901234126 | 12 | 0 | 0.0 | 0.0 | 0.00 | 0.00 | 0.00 | 92 | 1020.2 |
| 20260901233125 | 12 | 0 | 0.0 | 0.0 | 0.00 | 0.00 | 0.00 | 92 | 1020.2 |
| 20260901232124 | 12 | 0 | 0.0 | 0.0 | 0.00 | 0.00 | 0.00 | 92 | 1020.3 |
| 20260901231125 | 12 | 0 | 0.0 | 0.0 | 0.00 | 0.00 | 0.00 | 92 | 1020.4 |
| 20260901230120 | 12 | 0 | 0.0 | 0.0 | 0.00 | 0.00 | 0.00 | 91 | 1020.5 |
| 20260901225121 | 13 | 0 | 0.0 | 0.0 | 0.00 | 0.00 | 0.00 | 90 | 1020.4 |
| 20260901224114 | 13 | 0 | 0.0 | 0.0 | 0.00 | 0.00 | 0.00 | 87 | 1020.5 |
| 20260901223117 | 13 | 0 | 0.0 | 0.0 | 0.00 | 0.00 | 0.00 | 85 | 1020.4 |
| 20260901222117 | 13 | 0 | 0.0 | 0.0 | 0.00 | 0.00 | 0.00 | 83 | 1020.4 |
| 20260901221111 | 14 | 0 | 0.0 | 0.0 | 0.00 | 0.00 | 0.00 | 82 | 1020.4 |
| 20260901215112 | 14 | 0 | 0.0 | 0.0 | 0.00 | 0.00 | 0.00 | 80 | 1020.4 |
| 20260901214108 | 15 | 0 | 0.0 | 0.0 | 0.00 | 0.00 | 0.00 | 80 | 1020.5 |
| 20260901212109 | 15 | 0 | 0.0 | 0.0 | 0.00 | 0.00 | 0.00 | 79 | 1020.6 |
| 20260901210101 | 15 | 0 | 0.0 | 0.0 | 0.00 | 0.00 | 0.00 | 78 | 1020.6 |
| 20260901205101 | 15 | 0 | 0.0 | 0.0 | 0.00 | 0.00 | 0.00 | 78 | 1020.6 |
| 20260901204056 | 15 | 0 | 0.0 | 0.0 | 0.00 | 0.00 | 0.00 | 78 | 1020.5 |
| 20260901203100 | 16 | 0 | 0.0 | 0.0 | 0.00 | 0.00 | 0.00 | 78 | 1020.5 |
| 20260901202105 | 16 | 0 | 0.0 | 0.0 | 0.00 | 0.00 | 0.00 | 77 | 1020.4 |
| 20260901201057 | 16 | 0 | 0.0 | 0.0 | 0.00 | 0.00 | 0.00 | 76 | 1020.3 |
| 20260901195050 | 16 | 0 | 0.0 | 0.0 | 0.00 | 0.00 | 0.00 | 76 | 1020.3 |
| 20260901194043 | 16 | 0 | 0.0 | 0.0 | 0.00 | 0.00 | 0.00 | 76 | 1020.2 |
| 20260901193043 | 16 | 0 | 0.0 | 0.0 | 0.00 | 0.00 | 0.00 | 76 | 1020.1 |
| 20260901192043 | 16 | 0 | 0.0 | 0.0 | 0.00 | 0.00 | 0.00 | 75 | 1020.0 |
| 20260901191039 | 16 | 0 | 0.0 | 0.0 | 0.00 | 0.00 | 0.00 | 74 | 1019.9 |
| 20260901190030 | 16 | 0 | 0.0 | 0.0 | 0.00 | 0.00 | 0.00 | 73 | 1019.9 |
| 20260901185035 | 16 | 0 | 0.0 | 0.0 | 0.00 | 0.00 | 0.00 | 72 | 1019.9 |
| 20260901184024 | 16 | 0 | 0.0 | 0.0 | 0.00 | 0.00 | 0.00 | 70 | 1019.8 |
| 20260901183031 | 17 | 0 | 0.0 | 0.0 | 0.00 | 0.00 | 0.00 | 69 | 1019.7 |
| 20260901182023 | 17 | 0 | 0.0 | 0.0 | 0.00 | 0.00 | 0.00 | 67 | 1019.6 |
| 20260901181010 | 17 | 0 | 0.0 | 0.0 | 0.00 | 0.00 | 0.00 | 66 | 1019.7 |
| 20260901175007 | 18 | 0 | 0.0 | 0.0 | 0.00 | 0.00 | 0.00 | 62 | 1019.6 |
| 20260901174010 | 19 | 0 | 0.0 | 0.0 | 0.00 | 0.00 | 0.00 | 60 | 1019.5 |
| 20260901173006 | 19 | 0 | 0.0 | 0.0 | 0.00 | 0.00 | 0.00 | 60 | 1019.6 |
| 20260901172008 | 18 | 0 | 0.0 | 0.0 | 0.00 | 0.00 | 0.00 | 59 | 1019.7 |
| 20260901171008 | 20 | 0 | 0.0 | 0.0 | 0.00 | 0.00 | 0.00 | 56 | 1019.5 |
| 20260901170005 | 20 | 0 | 0.0 | 0.0 | 0.00 | 0.00 | 0.00 | 55 | 1019.5 |
| 20260901165004 | 20 | 0 | 0.0 | 0.0 | 0.00 | 0.00 | 0.00 | 55 | 1019.5 |
| 20260901164003 | 20 | 0 | 0.0 | 0.0 | 0.00 | 0.00 | 0.00 | 54 | 1019.3 |
| 20260901163001 | 20 | 0 | 0.0 | 0.0 | 0.00 | 0.00 | 0.00 | 54 | 1019.3 |
| 20260901162001 | 20 | 0 | 0.0 | 0.0 | 0.00 | 0.00 | 0.00 | 54 | 1019.3 |
| 20260901161002 | 20 | 0 | 0.0 | 0.0 | 0.00 | 0.00 | 0.00 | 55 | 1019.3 |
| 20260901160003 | 20 | 0 | 0.0 | 0.0 | 0.00 | 0.00 | 0.00 | 55 | 1019.3 |
| 20260901155001 | 20 | 0 | 0.0 | 0.0 | 0.00 | 0.00 | 0.00 | 54 | 1019.3 |
| 20260901154001 | 21 | 0 | 0.0 | 0.0 | 0.00 | 0.03 | 0.00 | 53 | 1019.3 |
| 20260901153001 | 21 | 0 | 0.0 | 0.0 | 0.00 | 0.03 | 0.00 | 53 | 1019.3 |
| 20260901152000 | 21 | 0 | 0.0 | 0.0 | 0.00 | 0.03 | 0.00 | 54 | 1019.4 |
| 20260901151002 | 21 | 0 | 0.0 | 0.0 | 0.00 | 0.03 | 0.00 | 53 | 1019.4 |
| 20260901150000 | 21 | 0 | 0.0 | 0.0 | 0.00 | 0.05 | 0.00 | 53 | 1019.4 |
| 20260901144959 | 21 | 0 | 0.0 | 0.0 | 0.00 | 0.05 | 0.00 | 55 | 1019.4 |
| 20260901144000 | 20 | 0 | 0.0 | 0.0 | 0.00 | 0.05 | 0.00 | 55 | 1019.4 |
| 20260901143000 | 20 | 0 | 0.0 | 0.0 | 0.00 | 0.05 | 0.00 | 57 | 1019.4 |
| 20260901141958 | 21 | 0 | 0.0 | 0.0 | 0.00 | 0.05 | 0.00 | 57 | 1019.5 |
| 20260901140959 | 20 | 0 | 0.0 | 0.0 | 0.00 | 0.05 | 0.00 | 57 | 1019.4 |
| 20260901135959 | 21 | 0 | 0.0 | 0.0 | 0.00 | 0.05 | 0.00 | 53 | 1019.4 |
| 20260901134000 | 20 | 0 | 0.0 | 0.0 | 0.00 | 0.15 | 0.00 | 58 | 1019.6 |
| 20260901131959 | 20 | 0 | 0.0 | 0.0 | 0.00 | 0.18 | 0.00 | 59 | 1019.6 |
| 20260901130959 | 21 | 0 | 0.0 | 0.0 | 0.00 | 0.18 | 0.00 | 57 | 1019.6 |
| 20260901123958 | 20 | 0 | 0.0 | 0.0 | 0.00 | 0.18 | 0.00 | 62 | 1019.8 |
| 20260901122958 | 20 | 0 | 0.0 | 0.0 | 0.00 | 0.18 | 0.00 | 61 | 1019.7 |
| 20260901121958 | 20 | 0 | 0.0 | 0.0 | 0.00 | 0.20 | 0.00 | 62 | 1019.8 |
| 20260901120958 | 20 | 0 | 0.0 | 0.0 | 0.00 | 0.61 | 0.00 | 63 | 1019.8 |
| 20260901115959 | 20 | 0 | 0.0 | 0.0 | 0.00 | 0.97 | 0.00 | 63 | 1019.8 |
| 20260901114957 | 19 | 0 | 0.0 | 0.0 | 0.00 | 1.07 | 0.00 | 69 | 1019.9 |
| 20260901113957 | 18 | 0 | 0.0 | 0.0 | 0.00 | 1.07 | 0.00 | 74 | 1019.9 |
| 20260901112957 | 18 | 0 | 0.0 | 0.0 | 0.00 | 1.07 | 0.00 | 72 | 1019.9 |
| 20260901111957 | 18 | 0 | 0.0 | 0.0 | 0.00 | 1.07 | 0.00 | 73 | 1019.9 |
| 20260901105957 | 17 | 0 | 0.0 | 0.0 | 0.00 | 1.07 | 0.00 | 76 | 1020.1 |
| 20260901104957 | 18 | 0 | 0.0 | 0.0 | 0.00 | 1.07 | 0.00 | 76 | 1020.0 |
| 20260901103957 | 18 | 0 | 0.0 | 0.0 | 0.00 | 1.07 | 0.00 | 75 | 1019.9 |
| 20260901102957 | 18 | 0 | 0.0 | 0.0 | 0.00 | 1.07 | 0.00 | 78 | 1019.9 |
| 20260901101957 | 17 | 0 | 0.0 | 0.0 | 0.00 | 1.07 | 0.00 | 81 | 1020.0 |
| 20260901100957 | 18 | 0 | 0.0 | 0.0 | 0.00 | 1.07 | 0.00 | 80 | 1020.0 |
| 20260901094957 | 18 | 0 | 0.0 | 0.0 | 0.00 | 1.07 | 0.00 | 81 | 1020.1 |
| 20260901093957 | 17 | 0 | 0.0 | 0.0 | 0.00 | 1.07 | 0.00 | 83 | 1020.0 |
| 20260901092957 | 18 | 0 | 0.0 | 0.0 | 0.00 | 1.07 | 0.00 | 81 | 1019.9 |
| 20260901091958 | 17 | 0 | 0.0 | 0.0 | 0.00 | 1.07 | 0.00 | 83 | 1020.0 |
| 20260901090957 | 16 | 0 | 0.0 | 0.0 | 0.00 | 1.07 | 0.00 | 87 | 1020.0 |
| 20260901084957 | 16 | 0 | 0.0 | 0.0 | 0.00 | 1.07 | 0.00 | 89 | 1019.9 |
| 20260901083957 | 16 | 0 | 0.0 | 0.0 | 0.00 | 1.07 | 0.00 | 88 | 1019.8 |
| 20260901082957 | 16 | 0 | 0.0 | 0.0 | 0.00 | 1.07 | 0.00 | 90 | 1019.8 |
| 20260901081957 | 15 | 0 | 0.0 | 0.0 | 0.00 | 1.07 | 0.00 | 91 | 1019.8 |
| 20260901080957 | 15 | 0 | 0.0 | 0.0 | 0.00 | 1.07 | 0.00 | 91 | 1019.7 |
| 20260901075957 | 15 | 0 | 0.0 | 0.0 | 0.00 | 1.07 | 0.00 | 91 | 1019.6 |
| 20260901074957 | 15 | 0 | 0.0 | 0.0 | 0.00 | 1.07 | 0.00 | 92 | 1019.4 |
| 20260901073957 | 15 | 0 | 0.0 | 0.0 | 0.00 | 1.07 | 0.00 | 92 | 1019.3 |
| 20260901071957 | 15 | 0 | 0.0 | 0.0 | 0.00 | 1.07 | 0.00 | 93 | 1019.3 |
| 20260901070957 | 15 | 0 | 0.0 | 0.0 | 0.00 | 1.07 | 0.00 | 93 | 1019.3 |
| 20260901063957 | 14 | 0 | 0.0 | 0.0 | 0.00 | 1.07 | 0.00 | 97 | 1019.2 |
| 20260901062957 | 14 | 0 | 0.0 | 0.0 | 0.00 | 1.09 | 0.00 | 97 | 1019.3 |
| 20260901061957 | 14 | 0 | 0.0 | 0.0 | 0.00 | 1.09 | 0.00 | 98 | 1019.2 |
| 20260901060957 | 13 | 0 | 0.0 | 0.0 | 0.00 | 1.09 | 0.00 | 99 | 1019.1 |
| 20260901055957 | 13 | 0 | 0.0 | 0.0 | 0.00 | 1.09 | 0.00 | 99 | 1019.0 |
| 20260901053957 | 13 | 0 | 0.0 | 0.0 | 0.00 | 1.09 | 0.00 | 99 | 1019.0 |
| 20260901052957 | 13 | 0 | 0.0 | 0.0 | 0.00 | 1.09 | 0.00 | 99 | 1018.9 |
| 20260901051957 | 13 | 0 | 0.0 | 0.0 | 0.00 | 1.09 | 0.00 | 99 | 1018.8 |
| 20260901050957 | 13 | 0 | 0.0 | 0.0 | 0.00 | 1.09 | 0.00 | 99 | 1018.8 |
| 20260901045958 | 13 | 0 | 0.0 | 0.0 | 0.00 | 1.09 | 0.00 | 99 | 1018.7 |
| 20260901044957 | 13 | 0 | 0.0 | 0.0 | 0.00 | 1.09 | 0.00 | 99 | 1018.7 |
| 20260901043957 | 13 | 0 | 0.0 | 0.0 | 0.00 | 1.09 | 0.00 | 99 | 1018.6 |
| 20260901042958 | 13 | 0 | 0.0 | 0.0 | 0.00 | 1.09 | 0.00 | 99 | 1018.5 |
| 20260901041957 | 13 | 0 | 0.0 | 0.0 | 0.00 | 1.09 | 0.00 | 99 | 1018.5 |
| 20260901040957 | 13 | 0 | 0.0 | 0.0 | 0.00 | 1.09 | 0.00 | 98 | 1018.4 |
| 20260901035957 | 13 | 0 | 0.0 | 0.0 | 0.00 | 1.09 | 0.00 | 98 | 1018.4 |
| 20260901032957 | 13 | 0 | 0.0 | 0.0 | 0.00 | 1.09 | 0.00 | 98 | 1018.2 |
| 20260901031957 | 13 | 0 | 0.0 | 0.0 | 0.00 | 1.09 | 0.00 | 97 | 1018.2 |
| 20260901025958 | 13 | 0 | 0.0 | 0.0 | 0.00 | 1.09 | 0.00 | 98 | 1018.2 |
| 20260901024957 | 13 | 0 | 0.0 | 0.0 | 0.00 | 1.09 | 0.00 | 98 | 1018.2 |
| 20260901023958 | 13 | 0 | 0.0 | 0.0 | 0.00 | 1.09 | 0.00 | 98 | 1018.2 |
| 20260901022957 | 13 | 0 | 0.0 | 0.0 | 0.00 | 1.09 | 0.00 | 98 | 1018.3 |
| 20260901021957 | 13 | 0 | 0.0 | 0.0 | 0.00 | 1.09 | 0.00 | 97 | 1018.3 |
| 20260901020957 | 13 | 0 | 0.0 | 0.0 | 0.00 | 1.09 | 0.00 | 97 | 1018.2 |
| 20260901015957 | 13 | 0 | 0.0 | 0.0 | 0.00 | 1.09 | 0.00 | 97 | 1018.2 |